User: anonymous   Login
Location: Newark
(52.2090°N, 4.1550°W)
Time: 19:13:33
(UTC+00:00)
Language:

Transit 4A - Orbit

View from above orbital plane
View from above orbital plane
View from above satellite
View from above satellite

Ground track
Ground track

The orbit data is extracted from the following two-line orbital elements,

1   116U 61015A   19287.84522187 -.00000066  00000-0  81750-5 0  9994
2   116  66.8086  91.0600 0076599 186.7495 173.2560 13.91759852957988
Epoch (UTC): 14 October 2019 20:17:07
Eccentricity: 0.0076599
inclination: 66.8086°
perigee height: 866 km
apogee height: 978 km
right ascension of ascending node: 91.0600°
argument of perigee: 186.7495°
revolutions per day: 13.91759852
mean anomaly at epoch: 173.2560°
orbit number at epoch: 95798

The dashed part of the orbit path shows where the satellite is in the earth's shadow,  

DLR